Regional Weather Roundup
Issued by NWS Albany, NY

Home | Current Version | Previous Version | Text Only | Print | Product List | Glossary On
Versions: 1 2 3 4 5 6 7 8 9 10 11 12 13 14 15 16 17 18 19 20 21 22 23 24 25
000
ASUS41 KALY 162310
RWRALY

NEW YORK STATE HOURLY WEATHER ROUNDUP
NATIONAL WEATHER SERVICE ALBANY NY
600 PM EST FRI FEB 16 2018

NOTE: "FAIR" INDICATES FEW OR NO CLOUDS BELOW 12,000 FEET WITH NO
SIGNIFICANT WEATHER AND/OR NO OBSTRUCTIONS TO VISIBILITY.

NYZ032-033-038>043-046>054-057>066-NYZ062>081-082-084-170000-
EAST


CITY           SKY/WX    TMP DP  RH WIND       PRES   REMARKS
ALBANY         MOCLDY    36  29  75 W17       29.87R WCI  26
GLENS FALLS    FAIR      36  22  56 NW13G24   29.86R WCI  27
POUGHKEEPSIE   CLOUDY    43  26  51 NW9       29.86R
NEWBURGH       CLOUDY    41  32  70 NW12G21   29.86R
MONTGOMERY     MOCLDY    41  27  57 NW10      29.87R
WHITE PLAINS   MOCLDY    42  32  67 NW20G29   29.83R
ISLIP          MOCLDY    47  39  74 NW14      29.80R
NEW YORK CITY  CLOUDY    46  35  65 NW22G29   29.85R
CENTRAL PARK   FAIR      45  33  63 NW10G28   29.87R
$$

NYZ005>009-017-018-044>046-055-056-170000-
CENTRAL


CITY           SKY/WX    TMP DP  RH WIND       PRES   REMARKS
FULTON         FAIR      30  20  66 W24G35    30.03R WCI  16
SYRACUSE       FAIR      29  21  72 W16G31    30.01R WCI  17
ROME           CLOUDY    32  26  78 W17       29.98R WCI  21
ELMIRA         FAIR      35  22  58 NW9       30.01R WCI  28
BINGHAMTON     FAIR      30  17  58 NW15G26   29.93R WCI  19
MONTICELLO     MOCLDY    34  26  72 NW17      29.89R WCI  23
$$

NYZ026>034-041>043-087-170000-
NORTH


CITY           SKY/WX    TMP DP  RH WIND       PRES   REMARKS
WATERTOWN      MOCLDY    29  20  69 N8        30.01R WCI  21
FORT DRUM      NOT AVBL
OGDENSBURG     FAIR      25  13  59 NW6       30.02R WCI  18
MASSENA        CLOUDY    26  13  57 W7        30.00R WCI  18
SARANAC LAKE   FLURRIES  22  17  81 VRB6      29.86R WCI  14
PLATTSBURGH    FAIR      29  17  61 NW14G28   29.91R WCI  18
$$

NYZ001>004-010>016-019>021-085-170000-
WEST


CITY           SKY/WX    TMP DP  RH WIND       PRES   REMARKS
NIAGARA FALLS  FAIR      28  14  55 W20       30.14R WCI  15
BUFFALO        MOCLDY    29  17  61 W16G23    30.13R WCI  17
DUNKIRK        CLOUDY    28  19  69 NW14G23   30.19R WCI  17
JAMESTOWN      LGT SNOW N/A N/A N/A MISG        N/A
WELLSVILLE     CLOUDY    28  19  69 NW22G28   30.02R WCI  14
ROCHESTER      FAIR      28  17  63 NW15G24   30.10R WCI  16
PENN YAN       FAIR      30  16  56 NW18G26   30.03R WCI  18
$$

             KEY
       WCI = WIND CHILL INDEX
       VSB = VISIBILITY
       HX  = HEAT INDEX
$$




USA.gov is the U.S. government's official web portal to all federal, state and local government web resources and services.